map of LIL home
Great Circle Mapper logo
LIL - Airport
Location
City:  Lille, France
Name:Lesquin
ICAO / IATA:LFQQ / LIL

Details
Type:Airport (Aerodrome, Airfield)
Use:Public/Civil, International (customs port of entry)
Latitude:5033'48"N (50.563333)
Longitude:305'13"E (3.086944)
Elevation:157 ft (48 m)
Runways:2
Longest:9268 × 148 ft (2825 × 45 m)

Time
Time Zone:UTC+1 (DST+2)
Local Time:

Weather
METAR:LFQQ 211100Z 22019KT 9999 -RA SCT012 BKN027 14/13 Q1002 TEMPO 5000 RA
TAF:LFQQ 211100Z 2112/2218 27020G35KT 9999 BKN025
TEMPO 2113/2117 29025G45KT 5000 SHRA BKN025CB
BECMG 2200/2203 29015G25KT
BECMG 2215/2218 28008KT

Related Locations
Nearby:
Farthest:CHT: 11963 mi / 19252 km
Waitangi [Tuuta], Chatham Islands, NZ

Find:

   beyond  
but within

Other Information
Maps:
NOTAMs:
Links:
Sources:

  
flag of France   

Sectional Chart

Flight Planning
at skyvector.com

Satellite Image

Google Maps Satellite View

 

Copyright © 2004-2014 Karl L. Swartz. All rights reserved.
The Great Circle Mapper name and logo are trademarks of the Great Circle Mapper.
All other trademarks mentioned herein belong to their respective owners.
Please see credits for attibutions and further copyright information.

  Follow gcmap on Facebook Follow gcmap on Twitter

hCard Microformat

Geo Microformat